[[{"header":{"parameterUnit":"m.s-1","parameterCategory":1,"la1":30.2991,"la2":30.254,"lo1":-89.0895,"lo2":-89.0444,"dy":0.0017,"dx":0.0017,"nx":28,"ny":28,"refTime":"2025-01-20T09:00:00:Z","depth":0,"parameterNumber":2,"parameterNumberName":"U-component_of_WINDS"},"data":[0,0,0,0,0,0,0,0,0,0,0,0,0,0,0,0,0,0,0,0,0,0,0,0,0,0,0,0,0,0,0,0,0,0,0,0,0,0,0,0,0,0,0,0,0,0,0,0,0,0,0,0,0,0,0,0,0,0,-1.1041,-1.1042,0,-1.1104,-1.1105,-1.1105,-1.1063,-1.1061,-1.1059,-1.1057,-1.1124,-1.1127,-1.1131,0,0,0,0,0,0,0,0,0,0,0,0,0,-1.0885,-1.0888,-1.1041,-1.1042,-1.1042,-1.1104,-1.1105,-1.1105,-1.1063,-1.1061,-1.1059,-1.1056,-1.1123,-1.1127,-1.1131,0,0,0,0,0,0,0,0,0,0,0,0,0,-1.0951,-1.0889,-1.1041,-1.1029,-1.1028,-1.1104,-1.1105,-1.1106,-1.1064,-1.1061,-1.1058,-1.1055,-1.1121,-1.1127,-1.1132,-1.1223,0,0,-1.1148,-1.1151,0,0,0,0,0,0,0,0,-1.0947,-1.0957,-1.103,-1.103,-1.1029,-1.1072,-1.1074,-1.1145,-1.1064,-1.105,-1.1057,-1.1054,-1.1109,-1.1115,-1.1134,-1.1226,-1.1229,-1.1149,-1.1152,-1.1154,-1.1156,0,0,0,0,0,0,0,-1.0943,-1.0954,-1.1066,-1.1031,-1.1031,-1.1021,-1.1027,-1.1087,-1.1095,-1.1051,-1.1048,-1.1056,-1.1109,-1.1129,-1.1135,-1.123,-1.1149,-1.1153,-1.1157,-1.1159,-1.14,-1.1403,0,0,0,0,0,0,-1.0939,-1.095,-1.1064,-1.1068,-1.098,-1.1026,-1.1033,-1.1062,-1.1095,-1.1097,-1.1059,-1.1054,-1.1121,-1.1129,-1.1137,-1.1247,-1.1154,-1.1159,-1.1162,-1.1397,-1.1401,-1.1404,0,0,0,0,0,0,-1.0936,-1.095,-1.1061,-1.1008,-1.1022,-1.1031,-1.1064,-1.1064,-1.1084,-1.11,-1.1102,-1.1078,-1.1119,-1.113,-1.1202,-1.1248,-1.1162,-1.1167,-1.1393,-1.1398,-1.1403,-1.1466,0,0,0,0,0,0,-1.0932,-1.0949,-1.0984,-1.1009,-1.1025,-1.1125,-1.1067,-1.1068,-1.1093,-1.1088,-1.1118,-1.1121,-1.1118,-1.1194,-1.1207,-1.1254,-1.1171,-1.1389,-1.1395,-1.1401,-1.146,-1.1472,-1.1483,0,0,0,0,0,-1.0926,-1.0999,-1.0986,-1.0999,-1.1068,-1.1128,-1.1137,-1.1131,-1.1097,-1.1133,-1.1142,-1.112,-1.124,-1.1202,-1.1216,-1.1266,-1.1386,-1.1394,-1.1401,-1.1455,-1.147,-1.1483,0,0,0,0,0,0,-1.098,-1.1003,-1.0988,-1.1071,-1.1098,-1.112,-1.1165,-1.1147,-1.1185,-1.1178,-1.117,-1.1177,-1.1253,-1.1266,-1.1222,-1.1355,-1.1308,-1.1319,-1.1344,-1.1359,-1.137,-1.1367,-1.1175,0,0,0,0,0,-1.1001,-1.1047,-1.1065,-1.1137,-1.1151,-1.1155,-1.1181,-1.1174,-1.1202,-1.1213,-1.1228,-1.1256,-1.13,-1.133,-1.1372,-1.1461,-1.1467,-1.1501,-1.1513,-1.1522,-1.1532,-1.158,-1.1596,-1.1428,-1.1428,-1.1428,0,0,-1.1047,-1.1065,-1.1094,-1.1148,-1.1168,-1.1216,-1.1165,-1.1219,-1.1255,-1.1221,-1.1291,-1.1303,-1.1333,-1.1414,-1.1451,-1.1428,-1.158,-1.1532,-1.1539,-1.1544,-1.1589,-1.1605,-1.162,-1.1433,-1.1432,-1.1431,0,0,-1.1154,-1.1172,-1.1234,-1.1254,-1.1284,-1.1287,-1.1301,-1.1326,-1.1333,-1.1402,-1.1378,-1.142,-1.1496,-1.1519,-1.1541,-1.1655,-1.1635,-1.1668,-1.173,-1.1777,-1.179,-1.1802,-1.1843,-1.1858,-1.1677,-1.1678,-1.1678,0,-1.1207,-1.1278,-1.1268,-1.1323,-1.1348,-1.1318,-1.1381,-1.1401,-1.1444,-1.1462,-1.1435,-1.1529,-1.1548,-1.1634,-1.1661,-1.1679,-1.1697,-1.1666,-1.1789,-1.1801,-1.1811,-1.1851,-1.1866,-1.1681,-1.1681,-1.1681,-1.168,0,-1.1342,-1.1392,-1.1438,-1.1479,-1.1508,-1.1567,-1.1566,-1.1597,-1.1587,-1.1592,-1.1662,-1.1683,-1.1728,-1.1748,-1.1739,-1.1832,-1.1817,-1.179,-1.1743,-1.1832,-1.1869,-1.1884,-1.1687,-1.1686,-1.1685,-1.1684,0,0,-1.1488,-1.1521,-1.1538,-1.1556,-1.1586,-1.1625,-1.1681,-1.1725,-1.1752,-1.1781,-1.1829,-1.1893,-1.1868,-1.1892,-1.1885,-1.1926,-1.2016,-1.1894,-1.1894,-1.1917,-1.2121,-1.2143,-1.2161,-1.2002,-1.2005,-1.2007,-1.2119,0,-1.1598,-1.1697,-1.1689,-1.1783,-1.1829,-1.18,-1.185,-1.1874,-1.188,-1.192,-1.1926,-1.1972,-1.1934,-1.1948,-1.1987,-1.1997,-1.2057,-1.1988,-1.2048,-1.205,-1.2043,-1.218,-1.2203,-1.2308,-1.2133,-1.2135,-1.2137,0,-1.1741,-1.1774,-1.1873,-1.1895,-1.1914,-1.1959,-1.1997,-1.2035,-1.2061,-1.2062,-1.2089,-1.2074,-1.2132,-1.2081,-1.2161,-1.2114,-1.2137,-1.2145,-1.2149,-1.2156,-1.2101,-1.2192,-1.2341,-1.2358,-1.216,-1.2158,-1.2156,0,-1.1839,-1.1908,-1.1976,-1.1992,-1.2019,-1.2052,-1.2065,-1.2088,-1.2114,-1.2147,-1.2164,-1.2204,-1.2226,-1.2257,-1.2254,-1.2217,-1.2335,-1.2284,-1.2339,-1.2339,-1.2367,-1.2366,-1.2524,-1.2379,-1.2378,-1.2378,-1.2378,0,-1.1964,-1.2026,-1.2021,-1.2063,-1.2131,-1.212,-1.2188,-1.2197,-1.2217,-1.2261,-1.2238,-1.2279,-1.2271,-1.2312,-1.231,-1.2376,-1.2386,-1.2389,-1.2388,-1.2393,-1.2392,-1.241,-1.2403,-1.2382,-1.2381,-1.2381,-1.238,0,-1.2086,-1.2085,-1.2157,-1.2177,-1.2183,-1.2232,-1.2249,-1.2289,-1.2291,-1.2346,-1.2359,-1.2363,-1.241,-1.2409,-1.2463,-1.2461,-1.2543,-1.2533,-1.2535,-1.2533,-1.2588,-1.2584,-1.2764,-1.2788,-1.2626,-1.2628,-1.2629,0,-1.2167,-1.2214,-1.2238,-1.2265,-1.2279,-1.2323,-1.2349,-1.234,-1.2368,-1.24,-1.2437,-1.2481,-1.2517,-1.2593,-1.2602,-1.2642,-1.2634,-1.2694,-1.264,-1.2643,-1.2637,-1.2635,-1.264,-1.2706,-1.2708,-1.2709,-1.271,0,-1.2312,-1.2308,-1.2347,-1.2385,-1.2416,-1.2446,-1.2473,-1.2497,-1.249,-1.2523,-1.257,-1.2598,-1.2651,-1.2697,-1.2735,-1.2749,-1.2729,-1.2727,-1.2742,-1.2748,-1.2748,-1.275,-1.2566,-1.2724,-1.2722,-1.2721,-1.2721,-1.272,-1.2417,-1.2457,-1.248,-1.2523,-1.2542,-1.2567,-1.2606,-1.2612,-1.2651,-1.2694,-1.2686,-1.2739,-1.2763,-1.2813,-1.283,-1.2871,-1.285,-1.2871,-1.2877,-1.2883,-1.289,-1.2739,-1.2878,-1.2878,-1.2877,-1.2877,-1.2877,0,-1.2561,-1.2574,-1.2613,-1.2652,-1.2686,-1.2662,-1.269,-1.2721,-1.2768,-1.2791,-1.2826,-1.288,-1.2923,-1.2934,-1.2975,-1.3006,-1.2998,-1.3017,-1.3016,-1.302,-1.2906,-1.289,-1.3023,-1.3023,-1.3023,-1.3023,-1.3023,-1.3023,-1.2641,-1.2707,-1.2706,-1.2782,-1.2794,-1.2846,-1.2864,-1.2887,-1.2906,-1.2967,-1.3002,-1.3008,-1.3027,-1.3069,-1.3107,-1.3109,-1.3126,-1.3149,-1.3148,-1.3042,-1.3028,-1.3014,-1.2998,-1.3153,-1.3153,-1.3258,-1.3259,-1.326]},{"header":{"parameterUnit":"m.s-1","parameterCategory":1,"la1":30.2991,"la2":30.254,"lo1":-89.0895,"lo2":-89.0444,"dy":0.0017,"dx":0.0017,"nx":28,"ny":28,"refTime":"2025-01-20T09:00:00:Z","depth":0,"parameterNumber":3,"parameterNumberName":"V-component_of_WINDS"},"data":[0,0,0,0,0,0,0,0,0,0,0,0,0,0,0,0,0,0,0,0,0,0,0,0,0,0,0,0,0,0,0,0,0,0,0,0,0,0,0,0,0,0,0,0,0,0,0,0,0,0,0,0,0,0,0,0,0,0,-7.1888,-7.1889,0,-7.2019,-7.202,-7.2022,-7.1934,-7.193,-7.1926,-7.1922,-7.2052,-7.2059,-7.2066,0,0,0,0,0,0,0,0,0,0,0,0,0,-7.1557,-7.1564,-7.1888,-7.189,-7.1891,-7.2019,-7.202,-7.2022,-7.1935,-7.193,-7.1925,-7.192,-7.2049,-7.2058,-7.2066,0,0,0,0,0,0,0,0,0,0,0,0,0,-7.1696,-7.1566,-7.1888,-7.1863,-7.1862,-7.2018,-7.202,-7.2023,-7.1936,-7.193,-7.1924,-7.1918,-7.2046,-7.2057,-7.2067,-7.2254,0,0,-7.21,-7.2105,0,0,0,0,0,0,0,0,-7.1688,-7.1708,-7.1865,-7.1865,-7.1864,-7.1954,-7.1951,-7.21,-7.1937,-7.1908,-7.1922,-7.1915,-7.2024,-7.2036,-7.2073,-7.226,-7.2265,-7.2101,-7.2108,-7.2112,-7.2115,0,0,0,0,0,0,0,-7.1678,-7.1702,-7.1939,-7.1867,-7.1867,-7.1844,-7.1857,-7.1979,-7.1997,-7.191,-7.1904,-7.1921,-7.2022,-7.2063,-7.2076,-7.2267,-7.2101,-7.211,-7.2117,-7.2121,-7.2611,-7.2617,0,0,0,0,0,0,-7.1672,-7.1694,-7.1935,-7.1943,-7.176,-7.1855,-7.1869,-7.1931,-7.1996,-7.2,-7.1926,-7.1916,-7.2048,-7.2063,-7.208,-7.2302,-7.2112,-7.2122,-7.2129,-7.2604,-7.2612,-7.2619,0,0,0,0,0,0,-7.1665,-7.1694,-7.193,-7.1817,-7.1846,-7.1867,-7.1937,-7.1937,-7.1978,-7.2008,-7.201,-7.1965,-7.2044,-7.2065,-7.2211,-7.2305,-7.2127,-7.2137,-7.2597,-7.2607,-7.2616,-7.2747,0,0,0,0,0,0,-7.1656,-7.1692,-7.1764,-7.182,-7.1852,-7.2061,-7.1943,-7.1944,-7.1997,-7.1986,-7.2045,-7.2049,-7.2041,-7.2196,-7.2222,-7.2316,-7.2145,-7.2588,-7.2601,-7.2613,-7.2734,-7.276,-7.2782,0,0,0,0,0,-7.1644,-7.1795,-7.1769,-7.1798,-7.1943,-7.2067,-7.2085,-7.2074,-7.2005,-7.2077,-7.2096,-7.2047,-7.229,-7.2211,-7.224,-7.2339,-7.2582,-7.2597,-7.2612,-7.2723,-7.2755,-7.2781,0,0,0,0,0,0,-7.1749,-7.1802,-7.1773,-7.1947,-7.2003,-7.2052,-7.2142,-7.2107,-7.2183,-7.2169,-7.215,-7.2164,-7.2317,-7.2342,-7.2254,-7.2522,-7.2425,-7.2446,-7.25,-7.253,-7.2554,-7.2544,-7.2154,0,0,0,0,0,-7.1793,-7.189,-7.1931,-7.208,-7.211,-7.2122,-7.2175,-7.2161,-7.2218,-7.2241,-7.2271,-7.2326,-7.2415,-7.2474,-7.2557,-7.2737,-7.2748,-7.2819,-7.2843,-7.2862,-7.2881,-7.2977,-7.3009,-7.2668,-7.2668,-7.2667,0,0,-7.1883,-7.1924,-7.1987,-7.2102,-7.2144,-7.2244,-7.2142,-7.2252,-7.2325,-7.2257,-7.2397,-7.2421,-7.2482,-7.2646,-7.2719,-7.2671,-7.2977,-7.2881,-7.2897,-7.2905,-7.2995,-7.3028,-7.3056,-7.2678,-7.2676,-7.2674,0,0,-7.21,-7.2141,-7.227,-7.2314,-7.2379,-7.2386,-7.2417,-7.2471,-7.2485,-7.2625,-7.2576,-7.2661,-7.2815,-7.286,-7.2903,-7.3136,-7.3093,-7.3163,-7.3288,-7.3381,-7.3408,-7.3432,-7.3514,-7.3544,-7.3181,-7.3182,-7.3182,0,-7.2204,-7.2354,-7.234,-7.2454,-7.2505,-7.2449,-7.2578,-7.2621,-7.271,-7.2746,-7.2692,-7.2883,-7.292,-7.3093,-7.3149,-7.3186,-7.322,-7.3156,-7.3406,-7.3429,-7.3451,-7.3529,-7.356,-7.319,-7.3189,-7.3188,-7.3187,0,-7.2478,-7.2583,-7.2679,-7.2767,-7.2829,-7.295,-7.2953,-7.3017,-7.2998,-7.301,-7.3152,-7.3195,-7.3285,-7.3325,-7.3307,-7.3496,-7.3464,-7.3408,-7.331,-7.3492,-7.3565,-7.3595,-7.3201,-7.3198,-7.3196,-7.3194,0,0,-7.2765,-7.2844,-7.2879,-7.2918,-7.2986,-7.3066,-7.3183,-7.3273,-7.3328,-7.3391,-7.3488,-7.3619,-7.3567,-7.3616,-7.3602,-7.3684,-7.3865,-7.3618,-7.3619,-7.3662,-7.4074,-7.4115,-7.415,-7.3837,-7.3842,-7.3847,-7.4069,0,-7.2985,-7.3192,-7.3182,-7.3375,-7.3471,-7.3418,-7.352,-7.3572,-7.3586,-7.3667,-7.3681,-7.3775,-7.37,-7.3729,-7.3808,-7.3826,-7.3947,-7.381,-7.3925,-7.393,-7.3912,-7.4189,-7.4233,-7.4441,-7.4097,-7.4102,-7.4105,0,-7.3269,-7.3343,-7.3546,-7.3598,-7.3638,-7.3731,-7.3811,-7.3891,-7.3947,-7.3951,-7.4006,-7.3978,-7.4095,-7.3994,-7.4154,-7.4061,-7.4107,-7.4123,-7.4131,-7.4141,-7.4029,-7.4206,-7.4507,-7.4538,-7.415,-7.4147,-7.4144,0,-7.3457,-7.3607,-7.3748,-7.3783,-7.3848,-7.3914,-7.3943,-7.3994,-7.4048,-7.4118,-7.4153,-7.4235,-7.4281,-7.4344,-7.4338,-7.4266,-7.45,-7.4399,-7.4506,-7.4506,-7.4558,-7.4555,-7.487,-7.4588,-7.4588,-7.4587,-7.4587,0,-7.3704,-7.383,-7.3833,-7.392,-7.4059,-7.4046,-7.4183,-7.4205,-7.4251,-7.4339,-7.4298,-7.4382,-7.4369,-7.4453,-7.4449,-7.4581,-7.4602,-7.4607,-7.4604,-7.4611,-7.461,-7.4641,-7.4626,-7.4595,-7.4594,-7.4592,-7.4591,0,-7.3938,-7.3945,-7.4095,-7.4144,-7.416,-7.426,-7.4301,-7.4382,-7.4392,-7.4504,-7.453,-7.4545,-7.4641,-7.4642,-7.4751,-7.4748,-7.491,-7.4891,-7.4892,-7.4888,-7.4994,-7.4984,-7.534,-7.5385,-7.5075,-7.5078,-7.508,0,-7.4095,-7.4191,-7.4251,-7.4308,-7.4342,-7.4434,-7.449,-7.4479,-7.4539,-7.461,-7.4682,-7.4774,-7.4847,-7.5002,-7.5022,-7.5105,-7.5087,-7.5206,-7.5099,-7.5103,-7.5089,-7.5083,-7.5092,-7.5227,-7.5231,-7.5233,-7.5236,0,-7.4372,-7.4371,-7.4454,-7.4538,-7.4605,-7.4671,-7.4731,-7.4779,-7.4775,-7.4843,-7.4942,-7.4999,-7.5111,-7.5202,-7.5282,-7.531,-7.5273,-7.5269,-7.5298,-7.5306,-7.5302,-7.5305,-7.4949,-7.5261,-7.5259,-7.5257,-7.5255,-7.5254,-7.4572,-7.4655,-7.471,-7.4803,-7.4847,-7.4904,-7.4983,-7.5003,-7.5085,-7.5176,-7.5164,-7.5274,-7.5326,-7.543,-7.5465,-7.5548,-7.5507,-7.5549,-7.5559,-7.557,-7.5581,-7.5289,-7.5563,-7.5562,-7.5561,-7.5561,-7.556,0,-7.4847,-7.488,-7.4966,-7.5052,-7.5124,-7.5084,-7.5148,-7.5211,-7.5308,-7.5361,-7.5434,-7.5546,-7.5634,-7.5661,-7.5746,-7.5808,-7.5792,-7.583,-7.5825,-7.5832,-7.5614,-7.5581,-7.5841,-7.5841,-7.5841,-7.5841,-7.5841,-7.5841,-7.4999,-7.5136,-7.5142,-7.53,-7.5331,-7.5439,-7.5479,-7.553,-7.5572,-7.57,-7.5774,-7.5791,-7.5833,-7.592,-7.5999,-7.6004,-7.6037,-7.6082,-7.608,-7.5876,-7.5848,-7.5821,-7.5789,-7.6089,-7.609,-7.6291,-7.6293,-7.6294]}]]